[[{"header":{"parameterUnit":"m.s-1","parameterCategory":1,"la1":30.2991,"la2":30.254,"lo1":-89.0895,"lo2":-89.0444,"dy":0.0017,"dx":0.0017,"nx":28,"ny":28,"refTime":"2024-04-23T03:00:00:Z","depth":0,"parameterNumber":2,"parameterNumberName":"U-component_of_WINDS"},"data":[0,0,0,0,0,0,0,0,0,0,0,0,0,0,0,0,0,0,0,0,0,0,0,0,0,0,0,0,0,0,0,0,0,0,0,0,0,0,0,0,0,0,0,0,0,0,0,0,0,0,0,0,0,0,0,0,0,0,-3.9803,-3.9804,0,-3.9858,-3.9858,-3.9859,-3.9832,-3.9831,-3.9829,-3.9828,-3.9881,-3.9884,-3.9887,0,0,0,0,0,0,0,0,0,0,0,0,0,-3.9674,-3.9677,-3.9803,-3.9804,-3.9805,-3.9858,-3.9858,-3.9859,-3.9832,-3.983,-3.9829,-3.9827,-3.988,-3.9884,-3.9887,0,0,0,0,0,0,0,0,0,0,0,0,0,-3.973,-3.9678,-3.9803,-3.9798,-3.9798,-3.9857,-3.9858,-3.9859,-3.9833,-3.983,-3.9828,-3.9826,-3.9879,-3.9883,-3.9887,-3.9955,0,0,-3.99,-3.9902,0,0,0,0,0,0,0,0,-3.9727,-3.9734,-3.9798,-3.9798,-3.9798,-3.9836,-3.9832,-3.9891,-3.9833,-3.9819,-3.9828,-3.9825,-3.9868,-3.9873,-3.9887,-3.9957,-3.996,-3.99,-3.9903,-3.9904,-3.9906,0,0,0,0,0,0,0,-3.9723,-3.9732,-3.9825,-3.9799,-3.9799,-3.9792,-3.9797,-3.9843,-3.9855,-3.982,-3.9818,-3.9825,-3.9867,-3.9883,-3.9888,-3.996,-3.99,-3.9904,-3.9906,-3.9908,-4.0089,-4.0091,0,0,0,0,0,0,-3.972,-3.9729,-3.9823,-3.9826,-3.9757,-3.9796,-3.9802,-3.9826,-3.9854,-3.9856,-3.9827,-3.9824,-3.9877,-3.9884,-3.989,-3.9971,-3.9904,-3.9908,-3.9911,-4.0087,-4.0089,-4.0092,0,0,0,0,0,0,-3.9717,-3.9728,-3.9821,-3.9777,-3.9788,-3.98,-3.9827,-3.9828,-3.9844,-3.9859,-3.9861,-3.9842,-3.9876,-3.9884,-3.9939,-3.9972,-3.991,-3.9914,-4.0084,-4.0087,-4.0091,-4.0132,0,0,0,0,0,0,-3.9713,-3.9727,-3.9753,-3.9778,-3.9791,-3.9869,-3.9829,-3.9831,-3.9852,-3.9848,-3.9873,-3.9875,-3.9875,-3.9933,-3.9943,-3.9977,-3.9917,-4.0081,-4.0085,-4.009,-4.0128,-4.0137,-4.0145,0,0,0,0,0,-3.9709,-3.9762,-3.9755,-3.9766,-3.9824,-3.9871,-3.9878,-3.9878,-3.9854,-3.988,-3.989,-3.9875,-3.9968,-3.9939,-3.995,-3.9985,-4.0079,-4.0084,-4.0089,-4.0124,-4.0135,-4.0144,0,0,0,0,0,0,-3.974,-3.9765,-3.9757,-3.9821,-3.9844,-3.9866,-3.9899,-3.9889,-3.9919,-3.9914,-3.9911,-3.9917,-3.9974,-3.9986,-3.9953,-4.0052,-4.0019,-4.0027,-4.0042,-4.0053,-4.0061,-4.0056,-3.992,0,0,0,0,0,-3.9754,-3.9791,-3.9812,-3.9865,-3.9878,-3.9887,-3.9907,-3.9905,-3.9929,-3.9938,-3.9952,-3.9975,-4.001,-4.0032,-4.0065,-4.0131,-4.0135,-4.016,-4.0169,-4.0175,-4.0181,-4.0217,-4.0228,-4.0109,-4.0109,-4.0109,0,0,-3.9784,-3.9803,-3.9826,-3.9872,-3.989,-3.9928,-3.9895,-3.9936,-3.9964,-3.9944,-3.9996,-4.0008,-4.0034,-4.0094,-4.0122,-4.0106,-4.0216,-4.0182,-4.0187,-4.019,-4.0223,-4.0235,-4.0245,-4.0113,-4.0112,-4.0112,0,0,-3.9857,-3.9875,-3.9922,-3.9941,-3.9969,-3.9975,-3.9987,-4.0011,-4.0018,-4.0071,-4.0057,-4.0091,-4.015,-4.0169,-4.0186,-4.0269,-4.0255,-4.028,-4.0322,-4.0356,-4.0366,-4.0374,-4.0402,-4.0413,-4.0286,-4.0286,-4.0287,0,-3.989,-3.9947,-3.9947,-3.999,-4.001,-3.9996,-4.0043,-4.0062,-4.0098,-4.0113,-4.0095,-4.017,-4.0186,-4.0251,-4.0271,-4.0286,-4.0299,-4.0276,-4.0365,-4.0373,-4.038,-4.0407,-4.0418,-4.0289,-4.0289,-4.0289,-4.0288,0,-3.9985,-4.0025,-4.0059,-4.0097,-4.0121,-4.0166,-4.0173,-4.0198,-4.0195,-4.0202,-4.0257,-4.0276,-4.0313,-4.0328,-4.0325,-4.0393,-4.0382,-4.0365,-4.0331,-4.0394,-4.042,-4.043,-4.0293,-4.0292,-4.0291,-4.029,0,0,-4.0076,-4.0115,-4.0127,-4.0144,-4.0175,-4.0206,-4.025,-4.0287,-4.0308,-4.0335,-4.0371,-4.0423,-4.0407,-4.0427,-4.0426,-4.0457,-4.052,-4.0436,-4.0436,-4.0449,-4.0596,-4.0607,-4.0619,-4.0513,-4.0515,-4.0516,-4.0593,0,-4.015,-4.0228,-4.0231,-4.0302,-4.0339,-4.0327,-4.0365,-4.0388,-4.0398,-4.043,-4.044,-4.0476,-4.0453,-4.0465,-4.0495,-4.0506,-4.0549,-4.0501,-4.0545,-4.0547,-4.0537,-4.0633,-4.0645,-4.0716,-4.0603,-4.0605,-4.0606,0,-4.0246,-4.0277,-4.0352,-4.0379,-4.0394,-4.0429,-4.0463,-4.0494,-4.052,-4.0525,-4.0548,-4.0543,-4.0588,-4.0555,-4.0617,-4.0584,-4.0603,-4.0611,-4.0614,-4.0616,-4.0579,-4.0636,-4.0739,-4.0749,-4.0622,-4.0621,-4.062,0,-4.0304,-4.0364,-4.0417,-4.0432,-4.0464,-4.0489,-4.0504,-4.0528,-4.055,-4.058,-4.0594,-4.0629,-4.0648,-4.0675,-4.0679,-4.0655,-4.0741,-4.0708,-4.0745,-4.0745,-4.0761,-4.076,-4.0867,-4.0777,-4.0777,-4.0777,-4.0777,0,-4.0385,-4.0431,-4.0443,-4.0475,-4.0526,-4.053,-4.058,-4.0593,-4.0615,-4.0649,-4.0642,-4.0674,-4.0678,-4.0712,-4.0716,-4.0766,-4.0775,-4.0779,-4.0779,-4.0778,-4.0778,-4.0789,-4.0783,-4.078,-4.0779,-4.0778,-4.0778,0,-4.0456,-4.0467,-4.0523,-4.055,-4.0558,-4.0594,-4.0617,-4.0648,-4.0657,-4.0701,-4.0711,-4.0725,-4.0764,-4.0772,-4.0818,-4.0821,-4.088,-4.0876,-4.0871,-4.087,-4.0906,-4.0902,-4.1022,-4.1038,-4.0939,-4.094,-4.0941,0,-4.0506,-4.0541,-4.0573,-4.0596,-4.0612,-4.0648,-4.0671,-4.0677,-4.0701,-4.0734,-4.0761,-4.0799,-4.083,-4.0893,-4.0907,-4.0942,-4.0938,-4.0978,-4.0943,-4.0942,-4.0937,-4.0934,-4.0937,-4.0984,-4.0985,-4.0986,-4.0986,0,-4.0593,-4.0597,-4.0631,-4.0667,-4.0695,-4.0723,-4.075,-4.0769,-4.0778,-4.0806,-4.0846,-4.087,-4.0918,-4.0956,-4.0991,-4.1006,-4.0998,-4.0998,-4.1008,-4.1007,-4.1002,-4.1003,-4.0887,-4.0994,-4.0994,-4.0993,-4.0993,-4.0992,-4.0654,-4.0685,-4.0712,-4.075,-4.0772,-4.0797,-4.0828,-4.0841,-4.0875,-4.0915,-4.0916,-4.096,-4.0986,-4.1034,-4.1051,-4.1085,-4.1072,-4.1087,-4.109,-4.1093,-4.1096,-4.0998,-4.1092,-4.1091,-4.1091,-4.1091,-4.1091,0,-4.074,-4.0757,-4.0792,-4.0831,-4.0861,-4.0853,-4.0882,-4.0908,-4.0946,-4.0972,-4.1003,-4.105,-4.1087,-4.1105,-4.1142,-4.1166,-4.1163,-4.1176,-4.1173,-4.1176,-4.1106,-4.1093,-4.1177,-4.1177,-4.1177,-4.1177,-4.1177,-4.1177,-4.0788,-4.0839,-4.0847,-4.0909,-4.0926,-4.0969,-4.0987,-4.101,-4.1031,-4.1083,-4.1115,-4.1127,-4.115,-4.1189,-4.1222,-4.1227,-4.124,-4.1254,-4.1256,-4.119,-4.1181,-4.1173,-4.116,-4.1257,-4.1257,-4.1323,-4.1324,-4.1324]},{"header":{"parameterUnit":"m.s-1","parameterCategory":1,"la1":30.2991,"la2":30.254,"lo1":-89.0895,"lo2":-89.0444,"dy":0.0017,"dx":0.0017,"nx":28,"ny":28,"refTime":"2024-04-23T03:00:00:Z","depth":0,"parameterNumber":3,"parameterNumberName":"V-component_of_WINDS"},"data":[0,0,0,0,0,0,0,0,0,0,0,0,0,0,0,0,0,0,0,0,0,0,0,0,0,0,0,0,0,0,0,0,0,0,0,0,0,0,0,0,0,0,0,0,0,0,0,0,0,0,0,0,0,0,0,0,0,0,3.3119,3.3119,0,3.3112,3.3112,3.3112,3.3062,3.306,3.3059,3.3058,3.305,3.3051,3.3052,0,0,0,0,0,0,0,0,0,0,0,0,0,3.3089,3.309,3.3119,3.3119,3.3119,3.3112,3.3112,3.3112,3.3062,3.306,3.3059,3.3057,3.305,3.3051,3.3052,0,0,0,0,0,0,0,0,0,0,0,0,0,3.3094,3.309,3.3119,3.3093,3.3091,3.3112,3.3112,3.3112,3.3062,3.306,3.3058,3.3057,3.3049,3.3051,3.3052,3.3098,0,0,3.3057,3.3057,0,0,0,0,0,0,0,0,3.3094,3.3096,3.3097,3.3095,3.3092,3.3086,3.3099,3.3107,3.3063,3.3073,3.3058,3.3056,3.3063,3.3064,3.3066,3.3098,3.3097,3.3057,3.3058,3.3058,3.3059,0,0,0,0,0,0,0,3.3094,3.3096,3.3116,3.3097,3.3094,3.3082,3.3081,3.31,3.3079,3.3072,3.3068,3.3068,3.3062,3.3065,3.3066,3.3097,3.3057,3.3058,3.3059,3.3059,3.3166,3.3168,0,0,0,0,0,0,3.3097,3.3096,3.3117,3.3116,3.3089,3.3084,3.3082,3.309,3.3078,3.3075,3.307,3.3066,3.3064,3.3064,3.3065,3.3118,3.3058,3.3059,3.306,3.3164,3.3167,3.3169,0,0,0,0,0,0,3.3097,3.31,3.3117,3.3105,3.3106,3.3086,3.3095,3.3091,3.3094,3.3077,3.3073,3.3077,3.3062,3.3063,3.309,3.3117,3.306,3.3061,3.3162,3.3165,3.3168,3.3224,0,0,0,0,0,0,3.3096,3.31,3.3116,3.3106,3.3107,3.3142,3.3097,3.3092,3.3096,3.3091,3.3082,3.3079,3.3061,3.3089,3.3092,3.3118,3.3062,3.3159,3.3163,3.3167,3.322,3.3229,3.3236,0,0,0,0,0,3.3095,3.3132,3.3118,3.312,3.3128,3.3144,3.3144,3.3123,3.3099,3.3116,3.3105,3.3079,3.3114,3.3092,3.3095,3.3122,3.3158,3.3162,3.3167,3.3216,3.3227,3.3236,0,0,0,0,0,0,3.3146,3.313,3.3114,3.3148,3.3148,3.3135,3.3155,3.3135,3.3141,3.3135,3.3108,3.3107,3.3138,3.3133,3.3108,3.3166,3.3132,3.3137,3.3168,3.3178,3.3186,3.3186,3.3064,0,0,0,0,0,3.3161,3.3176,3.3161,3.3193,3.3194,3.3175,3.3181,3.3165,3.3163,3.3162,3.3153,3.3152,3.3163,3.3171,3.3179,3.322,3.3217,3.324,3.3248,3.3255,3.3259,3.3281,3.3291,3.3184,3.3184,3.3184,0,0,3.3192,3.3186,3.3196,3.3203,3.3201,3.3216,3.3175,3.3193,3.3204,3.3165,3.319,3.3184,3.3181,3.3215,3.3229,3.3211,3.3289,3.3261,3.3266,3.3267,3.3286,3.3297,3.3306,3.3187,3.3186,3.3186,0,0,3.3257,3.3254,3.328,3.3279,3.3277,3.3264,3.3271,3.3262,3.3257,3.3282,3.3253,3.3266,3.3285,3.3284,3.3287,3.3354,3.3331,3.3358,3.3401,3.3422,3.343,3.3437,3.3461,3.347,3.3363,3.3363,3.3363,0,3.3296,3.3319,3.3296,3.3317,3.3321,3.3287,3.3314,3.3314,3.3315,3.3318,3.3299,3.3323,3.3318,3.3352,3.3369,3.3372,3.3378,3.3358,3.3431,3.3438,3.3444,3.3467,3.3476,3.3366,3.3366,3.3366,3.3365,0,3.3367,3.3383,3.3405,3.3407,3.3414,3.3437,3.3419,3.3428,3.3413,3.3403,3.3429,3.3423,3.3431,3.3438,3.3422,3.347,3.3459,3.3436,3.34,3.3458,3.3479,3.3487,3.3371,3.337,3.3369,3.3368,0,0,3.346,3.3452,3.346,3.3461,3.3457,3.3469,3.3492,3.35,3.3509,3.3511,3.3529,3.3547,3.3526,3.3529,3.3513,3.3532,3.3586,3.3506,3.3506,3.3521,3.3638,3.3654,3.3665,3.3571,3.3573,3.3574,3.3638,0,3.3522,3.356,3.3542,3.3582,3.3597,3.3567,3.3587,3.3587,3.3579,3.359,3.3581,3.3594,3.3566,3.3567,3.3585,3.3575,3.3609,3.3571,3.3587,3.3588,3.3587,3.3675,3.3693,3.3753,3.3646,3.3647,3.3648,0,3.3599,3.3605,3.3647,3.3642,3.3647,3.3665,3.3672,3.3684,3.3683,3.3676,3.3681,3.3661,3.3683,3.3649,3.3679,3.3654,3.366,3.3657,3.3659,3.3658,3.362,3.3676,3.3772,3.3781,3.3661,3.366,3.3659,0,3.3662,3.3682,3.3709,3.3711,3.3706,3.372,3.3718,3.3716,3.3722,3.3728,3.3732,3.3741,3.3745,3.3753,3.3736,3.3713,3.3768,3.3733,3.3763,3.3763,3.3774,3.3773,3.3871,3.378,3.378,3.378,3.378,0,3.3732,3.3759,3.3738,3.3755,3.3784,3.3764,3.3794,3.3789,3.3788,3.3803,3.3778,3.3793,3.3771,3.3784,3.3771,3.3798,3.3801,3.3795,3.3791,3.3797,3.3798,3.3799,3.3794,3.3782,3.3782,3.3781,3.3781,0,3.3807,3.3795,3.3823,3.3816,3.3815,3.3837,3.3831,3.3847,3.3838,3.3858,3.3862,3.3848,3.3862,3.3847,3.386,3.3851,3.3888,3.3878,3.3888,3.3885,3.3915,3.3912,3.4016,3.4028,3.3931,3.3932,3.3933,0,3.3852,3.3872,3.3868,3.3878,3.3878,3.3892,3.3899,3.3881,3.3889,3.3892,3.3907,3.392,3.3928,3.3953,3.3944,3.3954,3.3944,3.398,3.3945,3.395,3.3943,3.3942,3.3944,3.3986,3.3987,3.3988,3.3989,0,3.3933,3.3926,3.3937,3.3947,3.3957,3.3963,3.3968,3.3977,3.3958,3.3969,3.3984,3.3991,3.4005,3.4017,3.4025,3.4023,3.4003,3.4,3.4008,3.4013,3.4017,3.4014,3.3906,3.3997,3.3997,3.3996,3.3995,3.3995,3.3993,3.401,3.4011,3.4025,3.4027,3.4032,3.4047,3.4041,3.4053,3.4063,3.4052,3.407,3.4071,3.4079,3.408,3.4094,3.4079,3.409,3.4092,3.4095,3.4099,3.4016,3.4096,3.4095,3.4095,3.4095,3.4095,0,3.4072,3.4072,3.4085,3.4093,3.4104,3.4086,3.4091,3.4101,3.4118,3.4121,3.413,3.4148,3.4161,3.4154,3.4165,3.4177,3.4168,3.4181,3.4179,3.4179,3.4112,3.4104,3.4188,3.4188,3.4188,3.4188,3.4188,3.4188,3.4114,3.4142,3.4136,3.4165,3.4164,3.4182,3.4187,3.4192,3.4194,3.4215,3.4226,3.4222,3.422,3.4231,3.4242,3.424,3.4245,3.426,3.4255,3.4192,3.4183,3.4174,3.4167,3.4262,3.4262,3.432,3.432,3.4321]}]]